GW5568 Weather Reports


Display with metric or nautical units.
time (UTC)temp
F
wind
direction
speed
MPH
gust
MPH
rain 1hr
in
rain 24hr
in
rain mn
in
humidity
%
barometer
mb
20260506001609 66 0 0.0 0.0 0.00 0.00 0.00 69 1015.0
20260506000100 66 0 0.0 0.0 0.00 0.00 0.00 69 1015.2
20260505234559 65 0 0.0 0.0 0.00 0.00 0.00 69 1015.4
20260505233058 65 0 0.0 0.0 0.00 0.00 0.00 70 1015.4
20260505231555 65 0 0.0 0.0 0.00 0.00 0.00 70 1015.5
20260505230105 64 0 0.0 0.0 0.00 0.00 0.00 71 1015.6
20260505224552 64 0 0.0 1.0 0.00 0.00 0.00 72 1015.8
20260505223057 64 0 0.0 0.0 0.00 0.00 0.00 73 1015.9
20260505221554 64 0 0.0 0.0 0.00 0.00 0.00 73 1016.1
20260505220053 64 0 0.0 0.0 0.00 0.00 0.00 72 1016.2
20260505214605 64 0 0.0 0.0 0.00 0.00 0.00 71 1016.1
20260505213100 64 0 0.0 0.0 0.00 0.00 0.00 72 1016.2
20260505211602 64 0 0.0 0.0 0.00 0.00 0.00 71 1016.2
20260505210104 64 0 0.0 1.0 0.00 0.00 0.00 71 1016.4
20260505204555 64 0 0.0 0.0 0.00 0.00 0.00 71 1016.4
20260505203054 63 0 0.0 1.0 0.00 0.00 0.00 72 1016.5
20260505201604 63 0 0.0 0.0 0.00 0.00 0.00 73 1016.6
20260505200058 63 0 0.0 0.0 0.00 0.00 0.00 74 1016.6
20260505194601 63 0 0.0 0.0 0.00 0.00 0.00 73 1016.6
20260505193058 63 0 0.0 0.0 0.00 0.00 0.00 74 1016.6
20260505191605 62 0 0.0 0.0 0.00 0.00 0.00 74 1016.6
20260505190116 62 0 0.0 1.0 0.00 0.00 0.00 75 1016.7
20260505184605 61 0 0.0 0.0 0.00 0.00 0.00 76 1016.6
20260505183057 60 0 0.0 0.0 0.00 0.00 0.00 78 1016.6
20260505181558 59 0 0.0 0.0 0.00 0.00 0.00 80 1016.6
20260505180058 59 0 0.0 1.0 0.00 0.00 0.00 80 1016.6
20260505174552 59 0 0.0 0.0 0.00 0.00 0.00 81 1016.6
20260505173053 58 0 0.0 0.0 0.00 0.00 0.00 81 1016.5
20260505171557 57 0 0.0 0.0 0.00 0.00 0.00 83 1016.4
20260505170105 57 0 0.0 0.0 0.00 0.00 0.00 83 1016.5
20260505164551 57 0 0.0 0.0 0.00 0.00 0.00 84 1016.3
20260505163058 56 0 0.0 0.0 0.00 0.00 0.00 85 1016.3
20260505161551 56 0 0.0 0.0 0.00 0.00 0.00 87 1016.2
20260505153107 55 0 0.0 0.0 0.00 0.00 0.00 88 1016.2
20260505151557 55 0 0.0 0.0 0.00 0.00 0.00 88 1016.1
20260505150114 55 0 0.0 0.0 0.00 0.00 0.00 87 1016.0
20260505140105 55 0 0.0 0.0 0.00 0.00 0.00 86 1015.6
20260505124605 55 0 0.0 0.0 0.00 0.00 0.00 86 1015.3
20260505123111 55 0 0.0 0.0 0.00 0.00 0.00 86 1015.2
20260505121556 55 0 0.0 0.0 0.00 0.00 0.00 86 1015.1
20260505120059 55 0 0.0 0.0 0.00 0.00 0.00 86 1015.1
20260505114600 55 0 0.0 0.0 0.00 0.00 0.00 87 1015.1
20260505113058 55 0 0.0 0.0 0.00 0.00 0.00 87 1014.9
20260505111559 55 0 0.0 0.0 0.00 0.00 0.00 87 1014.9
20260505101554 54 0 0.0 0.0 0.00 0.00 0.00 88 1014.5
20260505100100 54 0 0.0 0.0 0.00 0.00 0.00 88 1014.5
20260505094552 54 0 0.0 0.0 0.00 0.00 0.00 88 1014.4
20260505093051 54 0 0.0 0.0 0.00 0.00 0.00 88 1014.3
20260505091610 54 0 0.0 0.0 0.00 0.00 0.00 87 1014.2
20260505090106 54 0 0.0 0.0 0.00 0.00 0.00 87 1014.1
20260505084555 54 0 0.0 0.0 0.00 0.00 0.00 87 1014.0
20260505083106 54 0 0.0 0.0 0.00 0.00 0.00 87 1014.1
20260505081552 54 0 0.0 0.0 0.00 0.00 0.00 87 1014.0
20260505080056 54 0 0.0 0.0 0.00 0.00 0.00 87 1013.7
20260505074551 55 0 0.0 0.0 0.00 0.00 0.00 86 1013.7
20260505073058 55 0 0.0 0.0 0.00 0.00 0.00 86 1013.5
20260505071551 55 0 0.0 0.0 0.00 0.00 0.00 85 1013.3
20260505070057 55 0 0.0 0.0 0.00 0.00 0.00 85 1013.1
20260505064556 56 0 0.0 0.0 0.00 0.00 0.00 84 1013.0
20260505063054 56 0 0.0 0.0 0.00 0.00 0.00 83 1013.0
20260505061604 57 0 0.0 0.0 0.00 0.00 0.00 82 1013.0
20260505060055 57 0 0.0 0.0 0.00 0.00 0.00 81 1012.9
20260505054558 57 0 0.0 0.0 0.00 0.00 0.00 81 1012.9
20260505053103 58 0 0.0 0.0 0.00 0.00 0.00 80 1012.8
20260505051552 58 0 0.0 0.0 0.00 0.00 0.00 79 1012.7
20260505050127 59 0 0.0 0.0 0.00 0.00 0.00 79 1012.6
20260505041602 61 0 0.0 1.0 0.00 0.00 0.00 76 1011.7
20260505040101 62 0 0.0 0.0 0.00 0.00 0.00 75 1011.5
20260505034557 63 0 0.0 0.0 0.00 0.00 0.00 73 1011.3
20260505033053 65 0 0.0 0.0 0.00 0.00 0.00 73 1011.1
20260505031559 67 0 0.0 0.0 0.00 0.00 0.00 71 1010.9
20260505030053 68 0 0.0 0.0 0.00 0.00 0.00 69 1010.7
20260505024550 70 0 0.0 0.0 0.00 0.00 0.00 68 1010.4
20260505023055 71 0 0.0 0.0 0.00 0.00 0.00 66 1010.4
20260505021553 72 0 0.0 0.0 0.00 0.00 0.00 67 1010.2
20260505020052 72 0 0.0 1.0 0.00 0.00 0.00 66 1010.1
20260505014605 73 0 0.0 1.0 0.00 0.00 0.00 65 1010.1
20260505013050 72 0 0.0 0.0 0.00 0.00 0.00 66 1010.4
20260505011603 72 0 0.0 0.0 0.00 0.00 0.00 65 1010.5
20260505010052 72 0 0.0 0.0 0.00 0.00 0.00 65 1010.6
20260505004552 72 0 0.0 0.0 0.00 0.00 0.00 65 1010.8
20260505003055 72 0 0.0 0.0 0.00 0.00 0.00 66 1010.8